Wind_Speed
15 15 15 15 15 15 15 15 16 16 16 17 17 18 19 19 20 20 21 21 22 22 22 23 23 23 24 24 25 25 25 25 25 26 26 27 26 26
16 17 17 17 17 17 18 18 19 19 20 20 21 21 22 23 24 24 25 25 26 26 27 27 27 27 28 28 28 29 29 29 29 30 30 30 30 30
18 19 19 19 20 20 21 21 21 22 23 24 24 25 25 26 27 28 29 29 30 30 31 31 32 32 32 32 32 33 33 34 34 34 34 34 34 34
20 21 21 21 22 22 23 24 24 25 25 27 28 28 29 30 30 31 31 32 33 34 34 35 35 36 36 37 37 37 38 38 39 39 39 39 38 38
22 22 23 23 24 25 26 26 27 28 28 29 30 31 32 33 33 34 35 36 36 37 38 38 38 39 39 40 40 41 41 42 42 42 43 43 43 42
23 24 24 25 26 27 28 29 30 31 32 32 33 34 35 36 36 37 38 39 39 40 41 41 41 43 43 44 44 45 45 46 46 46 47 47 47 46
23 24 26 26 28 29 30 31 31 32 33 34 35 36 37 38 39 39 40 41 42 43 44 45 46 47 48 49 49 49 49 50 50 50 51 51 50 50
25 26 28 29 30 31 32 32 33 34 35 36 37 38 39 41 42 43 44 44 45 46 48 49 50 51 52 52 53 54 54 54 54 53 53 53 54 54
28 29 30 30 31 32 33 34 36 37 38 39 40 42 43 44 46 47 48 49 49 50 52 53 54 55 56 56 57 57 58 58 58 58 58 57 57 57
29 30 31 32 33 35 36 37 38 40 41 42 44 45 47 48 49 50 52 53 54 55 56 56 56 57 57 58 59 60 60 61 61 61 61 60 60 60
32 33 34 35 36 37 39 40 41 43 44 46 47 49 50 51 52 54 55 56 56 57 58 59 59 59 60 60 61 62 62 63 63 63 64 64 64 63
34 35 36 37 38 39 41 42 45 46 48 49 50 51 53 54 55 56 57 58 58 59 60 61 61 61 61 61 62 63 63 64 64 65 65 66 66 65
35 37 38 39 41 42 44 46 48 49 50 52 53 54 55 56 58 59 59 60 60 61 61 61 61 61 61 60 59 60 62 62 63 64 65 66 67 67
38 39 41 43 44 46 47 48 49 51 52 54 55 56 57 58 59 60 61 61 61 61 60 60 60 59 59 59 59 59 60 61 61 61 62 63 64 65
41 43 44 45 47 48 48 50 51 53 54 55 56 58 59 60 60 60 60 60 60 59 59 58 57 57 57 56 56 56 56 57 57 57 58 59 60 61
41 43 44 46 48 49 50 51 53 54 55 56 57 58 58 58 58 58 57 56 56 56 56 56 55 54 53 53 53 52 52 51 51 52 53 53 54 56
42 44 47 48 50 51 52 53 54 55 56 56 56 56 56 55 55 54 53 53 53 52 51 51 51 51 50 50 49 48 47 45 45 45 46 46 48 49
45 47 48 50 51 52 53 54 54 55 55 55 54 53 52 52 51 51 51 51 50 49 48 47 46 45 44 44 43 42 40 39 39 39 40 40 40 41
47 48 49 51 52 53 53 53 53 53 52 52 51 50 50 49 49 49 48 48 46 45 44 43 41 40 38 36 37 37 36 35 34 33 33 33 34 35
48 49 51 52 52 51 51 51 50 50 49 48 48 47 46 46 45 45 45 44 43 41 40 39 37 36 33 32 31 32 33 31 30 29 28 28 29 30
50 51 51 51 50 50 49 48 48 47 47 46 46 45 44 44 43 43 42 40 38 36 35 34 34 32 30 29 28 28 29 29 27 26 25 25 26 26
50 50 49 49 48 47 46 46 46 45 45 44 43 43 42 42 40 39 38 36 34 33 32 31 31 30 29 28 27 26 26 26 25 25 24 24 23 23
48 47 47 46 45 44 44 43 43 42 42 42 41 41 40 38 37 36 35 33 32 31 30 29 28 28 28 27 26 25 24 24 24 24 24 24 23 22
Wind_Direction
249 252 255 258 261 264 265 266 268 271 273 275 277 278 279 280 281 281 281 281 281 280 279 279 280 279 278 277 276 275 274 273 272 270 269 268 268 267
253 256 259 262 264 267 268 269 271 273 275 276 278 280 281 281 282 281 281 280 280 280 279 279 279 278 277 277 275 274 273 272 271 270 269 269 268 267
255 259 262 265 267 270 271 273 274 275 276 276 277 279 281 281 281 281 281 281 281 281 280 280 279 278 277 276 275 274 273 272 271 270 269 268 268 267
258 261 264 267 270 273 275 276 277 278 278 278 279 279 280 280 281 280 281 281 281 280 279 279 278 277 276 275 274 274 273 272 271 270 269 268 267 267
262 264 266 268 271 273 275 276 278 279 279 280 280 281 282 282 282 282 281 281 280 280 279 278 278 277 275 274 274 273 272 272 271 270 269 268 268 267
264 265 268 271 273 274 276 278 279 280 281 282 282 283 283 284 284 284 283 283 282 281 280 279 277 276 275 274 274 273 272 272 271 270 269 268 267 266
267 269 271 273 275 277 279 281 281 282 283 284 284 284 284 285 285 285 285 284 283 283 282 280 279 277 276 274 273 273 272 272 271 270 268 268 267 266
270 272 273 275 277 279 281 282 284 284 284 285 285 285 285 286 286 286 285 284 283 282 281 280 279 277 276 275 273 272 271 270 269 269 268 267 266 265
270 272 275 277 279 281 282 284 285 285 285 285 285 286 286 286 286 286 285 285 283 282 281 280 279 278 276 275 274 272 271 270 269 267 266 266 265 264
273 276 279 280 280 281 283 284 285 286 287 286 286 287 287 287 286 286 285 285 284 283 282 281 279 278 277 276 275 273 272 271 269 268 266 265 264 264
276 278 281 282 282 283 284 285 286 287 287 287 287 287 287 287 287 286 286 285 285 284 283 282 280 278 277 276 275 273 272 271 269 268 266 265 264 263
280 281 283 283 285 285 285 287 287 288 288 288 288 288 288 288 288 287 287 286 285 284 283 283 282 280 278 277 276 274 273 271 269 268 266 265 264 263
282 283 283 284 285 286 286 288 289 289 288 288 289 289 289 289 288 288 287 286 286 285 284 283 282 281 280 278 276 275 274 272 271 269 268 266 265 264
284 284 285 286 287 287 288 289 289 289 289 289 289 290 290 290 289 289 288 287 287 286 285 284 283 282 281 280 278 276 275 273 271 270 268 267 265 264
286 287 287 288 289 289 289 290 290 290 290 291 291 291 291 290 290 289 289 288 287 287 286 285 285 284 283 282 281 278 276 274 273 270 269 268 266 265
288 289 290 290 290 290 291 291 291 291 291 292 292 292 291 291 291 291 290 289 289 289 288 287 286 285 284 284 284 282 279 276 274 272 271 269 268 266
290 290 291 291 291 292 293 293 293 293 293 293 293 293 293 293 293 292 291 290 290 289 288 288 288 288 287 287 285 284 282 280 278 275 273 272 270 269
291 291 292 293 293 294 294 294 294 294 294 295 295 294 294 294 294 293 293 292 291 290 289 288 288 289 290 289 288 286 284 283 281 278 276 273 272 272
293 293 294 294 294 295 295 295 295 295 296 296 296 296 296 295 295 295 295 294 292 291 290 289 288 288 288 288 289 289 287 285 283 281 279 276 274 273
294 295 295 296 296 296 296 297 297 298 298 298 298 298 298 297 297 297 296 295 294 292 291 289 289 290 289 288 287 287 288 287 285 283 281 280 280 277
296 297 298 298 298 298 298 299 299 299 300 300 300 300 300 299 298 298 299 298 296 293 292 290 289 290 290 290 289 288 288 288 286 284 283 282 280 278
298 299 299 299 299 299 299 300 300 301 301 301 302 301 301 300 300 300 300 299 297 295 294 292 291 290 290 289 289 288 287 288 288 288 286 285 281 277
301 301 301 301 300 300 300 301 302 302 302 302 302 303 303 302 302 301 300 300 298 296 295 293 291 291 290 289 288 288 287 287 287 289 289 288 285 279
Height
5870 5871 5871 5872 5872 5872 5872 5872 5872 5871 5871 5870 5870 5869 5868 5867 5866 5865 5863 5862 5861 5860 5859 5858 5857 5855 5854 5853 5852 5851 5850 5850 5849 5848 5847 5846 5846 5845
5867 5867 5867 5867 5867 5867 5867 5867 5867 5867 5866 5865 5864 5863 5862 5861 5860 5858 5857 5856 5855 5853 5852 5851 5850 5848 5847 5846 5845 5843 5842 5842 5841 5840 5839 5839 5838 5837
5862 5862 5862 5862 5862 5862 5862 5861 5861 5861 5860 5859 5858 5857 5856 5854 5853 5851 5850 5848 5847 5845 5844 5843 5841 5840 5838 5837 5836 5835 5833 5832 5832 5831 5830 5830 5829 5829
5857 5858 5857 5857 5857 5856 5856 5855 5854 5854 5853 5852 5850 5849 5848 5846 5845 5843 5841 5840 5838 5836 5835 5833 5831 5830 5828 5827 5825 5824 5823 5822 5821 5820 5819 5819 5818 5818
5852 5852 5852 5851 5851 5850 5849 5848 5847 5846 5845 5844 5842 5840 5839 5837 5836 5834 5832 5830 5828 5826 5824 5823 5821 5819 5817 5815 5814 5813 5811 5810 5809 5808 5807 5807 5806 5806
5846 5846 5845 5845 5844 5843 5842 5841 5839 5838 5836 5835 5833 5831 5829 5827 5825 5823 5821 5819 5817 5815 5813 5811 5809 5807 5805 5803 5801 5800 5798 5797 5795 5794 5794 5793 5793 5792
5840 5840 5839 5838 5837 5836 5834 5833 5831 5829 5827 5826 5824 5821 5819 5817 5814 5812 5810 5808 5805 5802 5800 5798 5796 5794 5791 5789 5787 5785 5784 5782 5781 5779 5779 5778 5778 5778
5834 5833 5832 5831 5829 5828 5826 5824 5822 5820 5818 5816 5814 5811 5808 5806 5803 5800 5798 5796 5793 5790 5787 5784 5781 5779 5776 5773 5771 5769 5767 5766 5765 5764 5763 5762 5762 5761
5826 5825 5824 5823 5821 5819 5817 5815 5813 5810 5808 5806 5803 5800 5797 5794 5791 5787 5784 5781 5778 5775 5772 5769 5765 5762 5759 5756 5753 5751 5749 5748 5747 5746 5745 5744 5744 5744
5818 5817 5816 5814 5812 5810 5807 5805 5802 5799 5796 5793 5790 5787 5783 5780 5776 5773 5769 5765 5761 5757 5754 5752 5748 5745 5741 5737 5734 5732 5730 5728 5727 5726 5725 5725 5725 5725
5810 5808 5806 5804 5802 5800 5797 5794 5791 5788 5784 5780 5777 5773 5769 5765 5760 5756 5752 5748 5745 5740 5735 5732 5729 5726 5723 5719 5715 5712 5709 5707 5706 5705 5704 5704 5704 5705
5801 5799 5796 5794 5791 5788 5785 5782 5779 5775 5771 5766 5762 5758 5753 5748 5743 5739 5734 5730 5726 5722 5716 5712 5708 5705 5703 5700 5695 5690 5688 5686 5684 5683 5682 5682 5682 5683
5790 5788 5786 5783 5780 5777 5773 5769 5765 5761 5757 5752 5747 5742 5737 5731 5726 5721 5716 5711 5706 5702 5698 5693 5689 5684 5680 5680 5677 5671 5667 5664 5663 5661 5660 5660 5660 5661
5780 5777 5774 5771 5768 5764 5760 5756 5751 5747 5742 5736 5731 5725 5720 5714 5708 5702 5696 5691 5686 5682 5677 5672 5668 5664 5661 5658 5656 5652 5647 5643 5641 5640 5639 5639 5639 5639
5769 5766 5762 5758 5754 5750 5746 5741 5736 5731 5726 5720 5714 5708 5702 5696 5690 5684 5678 5672 5667 5662 5657 5653 5649 5645 5641 5638 5635 5632 5628 5625 5621 5620 5619 5619 5618 5618
5757 5753 5749 5745 5741 5736 5731 5726 5721 5715 5709 5703 5697 5691 5685 5679 5673 5667 5661 5656 5650 5644 5638 5634 5630 5626 5623 5619 5615 5612 5609 5607 5605 5602 5601 5600 5599 5599
5745 5741 5736 5732 5727 5721 5716 5710 5705 5699 5693 5686 5680 5674 5668 5662 5656 5650 5645 5639 5634 5629 5624 5618 5613 5610 5606 5603 5600 5596 5593 5590 5588 5586 5585 5585 5584 5582
5732 5727 5722 5717 5712 5706 5700 5694 5688 5682 5676 5670 5664 5658 5652 5646 5640 5634 5629 5624 5618 5613 5609 5605 5600 5597 5592 5588 5585 5582 5579 5577 5575 5573 5571 5571 5571 5569
5719 5713 5708 5702 5697 5691 5684 5678 5672 5666 5660 5654 5648 5642 5637 5631 5625 5620 5614 5609 5604 5599 5595 5591 5587 5584 5581 5578 5573 5569 5567 5565 5564 5562 5560 5559 5559 5558
5704 5699 5694 5687 5681 5675 5669 5663 5657 5651 5645 5639 5634 5628 5623 5617 5611 5606 5601 5596 5591 5586 5582 5578 5575 5572 5570 5568 5565 5561 5557 5555 5554 5552 5551 5550 5549 5548
5690 5684 5678 5672 5666 5660 5654 5649 5643 5637 5631 5626 5620 5615 5609 5604 5599 5593 5588 5583 5579 5575 5571 5568 5564 5562 5559 5557 5555 5553 5549 5547 5545 5543 5542 5541 5540 5539
5676 5670 5664 5658 5652 5646 5641 5635 5630 5624 5619 5613 5608 5603 5597 5592 5587 5582 5577 5573 5568 5565 5561 5558 5555 5553 5550 5548 5546 5544 5542 5540 5537 5535 5534 5533 5532 5531
5662 5656 5650 5645 5639 5634 5628 5623 5618 5612 5607 5602 5596 5591 5586 5581 5576 5572 5567 5563 5559 5556 5552 5549 5547 5544 5542 5540 5538 5536 5535 5533 5531 5529 5527 5525 5524 5523